#timestamp,LO_Frequency,Hit,StdDev 
1599818495.3,286046961.5,P
1599818515.2,286046962.7,P
1599818535.0,286046959.9,P
1599818535.9,286046959.9,Y
1599818555.8,286046998.8,P
1599818575.6,286046998.8,N
1599818595.4,286046997.2,N
1599818615.3,286046997.1,N
1599818635.1,286046995.0,N
1599818655.9,286046994.0,N
1599818675.7,286046991.8,N
1599818695.5,286046992.3,N
1599818715.4,286046992.9,N
1599818735.2,286046988.9,N
1599818755.0,286046988.9,N
1599818755.9,286046988.9,N
1599818775.8,286046988.9,N
1599818795.6,286046989.2,N
1599818815.5,286046989.9,N
1599818835.3,286046987.2,N
1599818855.1,286046985.3,N
1599818875.9,286046986.8,N
1599818895.7,286046984.5,N
1599818915.5,286046985.0,N
1599818935.4,286046983.0,N
1599818955.2,286046983.0,N
1599818975.1,286046983.5,N
1599818976.0,286046983.5,N
1599818995.8,286046980.7,N
1599819015.6,286046978.9,N
1599819035.5,286046979.5,N
1599819055.3,286046979.7,N
1599819075.1,286046977.7,N
1599819095.9,286046975.7,Y
1599819115.7,286046989.1,P
1599819135.6,286046990.0,P
1599819155.4,286046989.8,P
1599819175.2,286046989.9,Y
1599819195.1,286046996.9,P
1599819196.0,286046996.9,N
1599819215.8,286046999.5,N
1599819235.7,286046997.3,N
1599819255.5,286046996.8,N
1599819275.3,286046994.9,N
1599819295.2,286046995.7,N
1599819315.0,286046995.9,N
1599819315.9,286046995.9,N
1599819335.8,286046993.8,N
1599819355.6,286046994.5,N
1599819375.4,286046992.6,Y
1599819395.3,286046997.9,P
1599819415.1,286046995.6,P
1599819435.8,286046995.9,P
1599819455.7,286046994.1,Y
1599819475.5,286046997.6,P
1599819495.4,286046994.9,P
1599819515.2,286046995.9,P
1599819535.0,286046993.7,Y
1599819535.9,286046993.7,P
1599819555.8,286046999.0,N
1599819575.6,286046994.9,N
1599819595.5,286046994.9,N
1599819615.3,286046997.8,N
1599819635.1,286046995.5,N
1599819655.9,286046995.8,N
1599819675.7,286046993.7,Y
1599819695.5,286046996.8,P
1599819715.4,286046999.6,N
1599819735.2,286046999.6,N
1599819755.1,286046996.9,N
1599819756.0,286046996.9,N
1599819775.8,286046995.5,Y
1599819795.6,286046999.6,P
1599819815.5,286046997.6,N
1599819835.3,286046996.5,P
1599819855.1,286046997.8,N
1599819875.9,286046995.5,Y
1599819895.7,286046996.7,P
1599819915.6,286046995.0,P
1599819935.4,286046995.0,P
1599819955.2,286046995.7,Y
1599819975.1,286046998.9,P
1599819976.0,286046998.9,N
1599819995.8,286046999.5,N
1599820015.7,286046999.0,N
1599820035.5,286046996.8,N
1599820055.3,286046996.8,N
1599820075.2,286046995.3,Y
1599820095.0,286046997.0,P
1599820095.9,286046997.0,P
1599820115.7,286046997.7,P
1599820135.6,286046995.3,Y
1599820155.4,286046998.8,P
1599820175.3,286046996.8,P
1599820195.1,286046997.5,P
1599820215.8,286046996.1,Y
1599820235.7,286046997.3,P
1599820255.5,286046997.2,P
1599820275.4,286046995.5,P
1599820295.2,286046993.3,Y
1599820315.0,286046997.2,P
1599820315.9,286046997.2,P
1599820335.8,286046995.0,P
1599820355.6,286046995.6,Y
1599820375.5,286046997.1,P
1599820395.3,286046995.1,P
1599820415.1,286046996.4,P
1599820435.9,286046993.3,Y
1599820455.7,286046999.0,P
1599820475.6,286046999.1,N
1599820495.4,286046996.9,N
1599820515.2,286046998.0,N
1599820535.1,286046996.4,Y
1599820536.0,286046996.4,P
1599820555.8,286046997.9,N
1599820575.6,286046997.7,P
1599820595.5,286046995.7,Y
1599820615.3,286046997.0,P
1599820635.2,286046997.7,P
1599820655.9,286046997.7,P
1599820675.7,286046995.6,Y
1599820695.6,286046997.1,P
1599820715.4,286046995.6,P
1599820735.3,286046995.5,P
1599820755.1,286046995.2,Y
1599820756.0,286046995.2,P
1599820775.8,286046998.5,N
1599820795.7,286046998.1,N
1599820815.5,286046996.7,N
1599820835.3,286046999.5,N
1599820855.2,286046997.3,N
1599820875.0,286046997.7,N
1599820875.9,286046997.7,N
1599820895.8,286046997.6,N
1599820915.6,286046995.8,Y
1599820935.4,286046997.7,P
1599820955.3,286046995.2,P
1599820975.1,286046994.9,P
1599820995.8,286046996.1,Y
1599821015.7,286046998.7,P
1599821035.5,286046996.5,N
1599821055.4,286046996.8,N
1599821075.2,286046997.5,N
1599821095.0,286046995.5,Y
1599821095.9,286046995.5,P
1599821115.8,286046999.4,N
1599821135.6,286046996.5,N
1599821155.4,286046999.2,N
1599821175.3,286046996.9,N
1599821195.1,286046995.2,Y
1599821215